Year,Month,Day,Hour,Minute,Value (Times are PST for temperature in C)
2017,06,07,00,00,14.50
2017,06,07,00,01,14.50
2017,06,07,00,02,14.50
2017,06,07,00,03,14.40
2017,06,07,00,04,14.40
2017,06,07,00,05,14.40
2017,06,07,00,06,14.40
2017,06,07,00,07,14.40
2017,06,07,00,08,14.40
2017,06,07,00,09,14.40
2017,06,07,00,10,14.40
2017,06,07,00,11,14.30
2017,06,07,00,12,14.30
2017,06,07,00,13,14.30
2017,06,07,00,14,14.30
2017,06,07,00,15,14.30
2017,06,07,00,16,14.30
2017,06,07,00,17,14.30
2017,06,07,00,18,14.30
2017,06,07,00,19,14.20
2017,06,07,00,20,14.20
2017,06,07,00,21,14.20
2017,06,07,00,22,14.20
2017,06,07,00,23,14.20
2017,06,07,00,24,14.20
2017,06,07,00,25,14.20
2017,06,07,00,26,14.10
2017,06,07,00,27,14.10
2017,06,07,00,28,14.10
2017,06,07,00,29,14.10
2017,06,07,00,30,14.10
2017,06,07,00,31,14.10
2017,06,07,00,32,14.10
2017,06,07,00,33,14.10
2017,06,07,00,34,14.10
2017,06,07,00,35,14.10
2017,06,07,00,36,14.10
2017,06,07,00,37,14.10
2017,06,07,00,38,14.10
2017,06,07,00,39,14.10
2017,06,07,00,40,14.10
2017,06,07,00,41,14.10
2017,06,07,00,42,14.10
2017,06,07,00,43,14.10
2017,06,07,00,44,14.10
2017,06,07,00,45,14.10
2017,06,07,00,46,14.00
2017,06,07,00,47,14.00
2017,06,07,00,48,14.00
2017,06,07,00,49,14.00
2017,06,07,00,50,14.00
2017,06,07,00,51,14.00
2017,06,07,00,52,13.90
2017,06,07,00,53,13.90
2017,06,07,00,54,13.90
2017,06,07,00,55,13.90
2017,06,07,00,56,13.90
2017,06,07,00,57,13.90
2017,06,07,00,58,13.80
2017,06,07,00,59,13.80
2017,06,07,01,00,13.80
2017,06,07,01,01,13.80
2017,06,07,01,02,13.80
2017,06,07,01,03,13.80
2017,06,07,01,04,13.80
2017,06,07,01,05,13.80
2017,06,07,01,06,13.80
2017,06,07,01,07,13.80
2017,06,07,01,08,13.80
2017,06,07,01,09,13.80
2017,06,07,01,10,13.80
2017,06,07,01,11,13.80
2017,06,07,01,12,13.80
2017,06,07,01,13,13.80
2017,06,07,01,14,13.80
2017,06,07,01,15,13.80
2017,06,07,01,16,13.80
2017,06,07,01,17,13.80
2017,06,07,01,18,13.80
2017,06,07,01,19,13.80
2017,06,07,01,20,13.80
2017,06,07,01,21,13.80
2017,06,07,01,22,13.80
2017,06,07,01,23,13.80
2017,06,07,01,24,13.80
2017,06,07,01,25,13.80
2017,06,07,01,26,13.80
2017,06,07,01,27,13.80
2017,06,07,01,28,13.80
2017,06,07,01,29,13.80
2017,06,07,01,30,13.70
2017,06,07,01,31,13.70
2017,06,07,01,32,13.70
2017,06,07,01,33,13.70
2017,06,07,01,34,13.70
2017,06,07,01,35,13.70
2017,06,07,01,36,13.70
2017,06,07,01,37,13.70
2017,06,07,01,38,13.70
2017,06,07,01,39,13.80
2017,06,07,01,40,13.80
2017,06,07,01,41,13.80
2017,06,07,01,42,13.80
2017,06,07,01,43,13.80
2017,06,07,01,44,13.80
2017,06,07,01,45,13.80
2017,06,07,01,46,13.80
2017,06,07,01,47,13.80
2017,06,07,01,48,13.80
2017,06,07,01,49,13.80
2017,06,07,01,50,13.80
2017,06,07,01,51,13.90
2017,06,07,01,52,13.90
2017,06,07,01,53,13.90
2017,06,07,01,54,13.90
2017,06,07,01,55,13.80
2017,06,07,01,56,13.80
2017,06,07,01,57,13.80
2017,06,07,01,58,13.80
2017,06,07,01,59,13.80
2017,06,07,02,00,13.80
2017,06,07,02,01,13.80
2017,06,07,02,02,13.80
2017,06,07,02,03,13.80
2017,06,07,02,04,13.80
2017,06,07,02,05,13.80
2017,06,07,02,06,13.80
2017,06,07,02,07,13.80
2017,06,07,02,08,13.80
2017,06,07,02,09,13.80
2017,06,07,02,10,13.80
2017,06,07,02,11,13.70
2017,06,07,02,12,13.70
2017,06,07,02,13,13.70
2017,06,07,02,14,13.70
2017,06,07,02,15,13.70
2017,06,07,02,16,13.70
2017,06,07,02,17,13.70
2017,06,07,02,18,13.60
2017,06,07,02,19,13.60
2017,06,07,02,20,13.60
2017,06,07,02,21,13.60
2017,06,07,02,22,13.60
2017,06,07,02,23,13.60
2017,06,07,02,24,13.60
2017,06,07,02,25,13.50
2017,06,07,02,26,13.50
2017,06,07,02,27,13.50
2017,06,07,02,28,13.50
2017,06,07,02,29,13.50
2017,06,07,02,30,13.50
2017,06,07,02,31,13.40
2017,06,07,02,32,13.40
2017,06,07,02,33,13.40
2017,06,07,02,34,13.40
2017,06,07,02,35,13.40
2017,06,07,02,36,13.40
2017,06,07,02,37,13.40
2017,06,07,02,38,13.30
2017,06,07,02,39,13.30
2017,06,07,02,40,13.30
2017,06,07,02,41,13.30
2017,06,07,02,42,13.30
2017,06,07,02,43,13.30
2017,06,07,02,44,13.20
2017,06,07,02,45,13.20
2017,06,07,02,46,13.20
2017,06,07,02,47,13.20
2017,06,07,02,48,13.10
2017,06,07,02,49,13.10
2017,06,07,02,50,13.10
2017,06,07,02,51,13.10
2017,06,07,02,52,13.00
2017,06,07,02,53,13.00
2017,06,07,02,54,12.90
2017,06,07,02,55,12.90
2017,06,07,02,56,12.90
2017,06,07,02,57,12.90
2017,06,07,02,58,12.80
2017,06,07,02,59,12.80
2017,06,07,03,00,12.80
2017,06,07,03,01,12.80
2017,06,07,03,02,12.80
2017,06,07,03,03,12.70
2017,06,07,03,04,12.70
2017,06,07,03,05,12.70
2017,06,07,03,06,12.70
2017,06,07,03,07,12.70
2017,06,07,03,08,12.60
2017,06,07,03,09,12.60
2017,06,07,03,10,12.60
2017,06,07,03,11,12.60
2017,06,07,03,12,12.60
2017,06,07,03,13,12.60
2017,06,07,03,14,12.50
2017,06,07,03,15,12.50
2017,06,07,03,16,12.40
2017,06,07,03,17,12.40
2017,06,07,03,18,12.40
2017,06,07,03,19,12.40
2017,06,07,03,20,12.40
2017,06,07,03,21,12.40
2017,06,07,03,22,12.40
2017,06,07,03,23,12.30
2017,06,07,03,24,12.30
2017,06,07,03,25,12.30
2017,06,07,03,26,12.30
2017,06,07,03,27,12.30
2017,06,07,03,28,12.30
2017,06,07,03,29,12.30
2017,06,07,03,30,12.20
2017,06,07,03,31,12.20
2017,06,07,03,32,12.20
2017,06,07,03,33,12.20
2017,06,07,03,34,12.20
2017,06,07,03,35,12.20
2017,06,07,03,36,12.20
2017,06,07,03,37,12.10
2017,06,07,03,38,12.10
2017,06,07,03,39,12.10
2017,06,07,03,40,12.10
2017,06,07,03,41,12.10
2017,06,07,03,42,12.10
2017,06,07,03,43,12.00
2017,06,07,03,44,12.00
2017,06,07,03,45,12.00
2017,06,07,03,46,12.00
2017,06,07,03,47,12.00
2017,06,07,03,48,11.90
2017,06,07,03,49,11.90
2017,06,07,03,50,11.90
2017,06,07,03,51,11.90
2017,06,07,03,52,11.90
2017,06,07,03,53,11.90
2017,06,07,03,54,11.90
2017,06,07,03,55,11.80
2017,06,07,03,56,11.80
2017,06,07,03,57,11.80
2017,06,07,03,58,11.80
2017,06,07,03,59,11.80
2017,06,07,04,00,11.80
2017,06,07,04,01,11.80
2017,06,07,04,02,11.70
2017,06,07,04,03,11.70
2017,06,07,04,04,11.70
2017,06,07,04,05,11.70
2017,06,07,04,06,11.70
2017,06,07,04,07,11.70
2017,06,07,04,08,11.60
2017,06,07,04,09,11.60
2017,06,07,04,10,11.60
2017,06,07,04,11,11.60
2017,06,07,04,12,11.60
2017,06,07,04,13,11.50
2017,06,07,04,14,11.50
2017,06,07,04,15,11.50
2017,06,07,04,16,11.50
2017,06,07,04,17,11.40
2017,06,07,04,18,11.40
2017,06,07,04,19,11.40
2017,06,07,04,20,11.40
2017,06,07,04,21,11.40
2017,06,07,04,22,11.40
2017,06,07,04,23,11.40
2017,06,07,04,24,11.40
2017,06,07,04,25,11.40
2017,06,07,04,26,11.40
2017,06,07,04,27,11.40
2017,06,07,04,28,11.30
2017,06,07,04,29,11.30
2017,06,07,04,30,11.30
2017,06,07,04,31,11.30
2017,06,07,04,32,11.30
2017,06,07,04,33,11.30
2017,06,07,04,34,11.30
2017,06,07,04,35,11.30
2017,06,07,04,36,11.20
2017,06,07,04,37,11.20
2017,06,07,04,38,11.20
2017,06,07,04,39,11.20
2017,06,07,04,40,11.20
2017,06,07,04,41,11.10
2017,06,07,04,42,11.10
2017,06,07,04,43,11.10
2017,06,07,04,44,11.10
2017,06,07,04,45,11.10
2017,06,07,04,46,11.10
2017,06,07,04,47,11.10
2017,06,07,04,48,11.00
2017,06,07,04,49,11.00
2017,06,07,04,50,11.00
2017,06,07,04,51,11.00
2017,06,07,04,52,11.00
2017,06,07,04,53,10.90
2017,06,07,04,54,10.90
2017,06,07,04,55,10.90
2017,06,07,04,56,10.90
2017,06,07,04,57,10.90
2017,06,07,04,58,10.80
2017,06,07,04,59,10.80
2017,06,07,05,00,10.80
2017,06,07,05,01,10.80
2017,06,07,05,02,10.80
2017,06,07,05,03,10.80
2017,06,07,05,04,10.80
2017,06,07,05,05,10.80
2017,06,07,05,06,10.70
2017,06,07,05,07,10.70
2017,06,07,05,08,10.70
2017,06,07,05,09,10.70
2017,06,07,05,10,10.70
2017,06,07,05,11,10.60
2017,06,07,05,12,10.60
2017,06,07,05,13,10.60
2017,06,07,05,14,10.60
2017,06,07,05,15,10.60
2017,06,07,05,16,10.50
2017,06,07,05,17,10.50
2017,06,07,05,18,10.50
2017,06,07,05,19,10.50
2017,06,07,05,20,10.40
2017,06,07,05,21,10.40
2017,06,07,05,22,10.40
2017,06,07,05,23,10.40
2017,06,07,05,24,10.40
2017,06,07,05,25,10.40
2017,06,07,05,26,10.30
2017,06,07,05,27,10.30
2017,06,07,05,28,10.30
2017,06,07,05,29,10.30
2017,06,07,05,30,10.30
2017,06,07,05,31,10.40
2017,06,07,05,32,10.40
2017,06,07,05,33,10.40
2017,06,07,05,34,10.40
2017,06,07,05,35,10.40
2017,06,07,05,36,10.40
2017,06,07,05,37,10.40
2017,06,07,05,38,10.40
2017,06,07,05,39,10.40
2017,06,07,05,40,10.40
2017,06,07,05,41,10.40
2017,06,07,05,42,10.40
2017,06,07,05,43,10.40
2017,06,07,05,44,10.40
2017,06,07,05,45,10.40
2017,06,07,05,46,10.40
2017,06,07,05,47,10.40
2017,06,07,05,48,10.40
2017,06,07,05,49,10.40
2017,06,07,05,50,10.40
2017,06,07,05,51,10.40
2017,06,07,05,52,10.40
2017,06,07,05,53,10.40
2017,06,07,05,54,10.40
2017,06,07,05,55,10.40
2017,06,07,05,56,10.40
2017,06,07,05,57,10.40
2017,06,07,05,58,10.40
2017,06,07,05,59,10.40
2017,06,07,06,00,10.50
2017,06,07,06,01,10.50
2017,06,07,06,02,10.50
2017,06,07,06,03,10.50
2017,06,07,06,04,10.50
2017,06,07,06,05,10.50
2017,06,07,06,06,10.50
2017,06,07,06,07,10.50
2017,06,07,06,08,10.50
2017,06,07,06,09,10.50
2017,06,07,06,10,10.50
2017,06,07,06,11,10.50
2017,06,07,06,12,10.40
2017,06,07,06,13,10.40
2017,06,07,06,14,10.40
2017,06,07,06,15,10.40
2017,06,07,06,16,10.40
2017,06,07,06,17,10.40
2017,06,07,06,18,10.40
2017,06,07,06,19,10.40
2017,06,07,06,20,10.40
2017,06,07,06,21,10.40
2017,06,07,06,22,10.40
2017,06,07,06,23,10.40
2017,06,07,06,24,10.40
2017,06,07,06,25,10.40
2017,06,07,06,26,10.40
2017,06,07,06,27,10.30
2017,06,07,06,28,10.30
2017,06,07,06,29,10.30
2017,06,07,06,30,10.30
2017,06,07,06,31,10.30
2017,06,07,06,32,10.30
2017,06,07,06,33,10.30
2017,06,07,06,34,10.30
2017,06,07,06,35,10.30
2017,06,07,06,36,10.30
2017,06,07,06,37,10.30
2017,06,07,06,38,10.30
2017,06,07,06,39,10.30
2017,06,07,06,40,10.30
2017,06,07,06,41,10.30
2017,06,07,06,42,10.30
2017,06,07,06,43,10.30
2017,06,07,06,44,10.30
2017,06,07,06,45,10.30
2017,06,07,06,46,10.30
2017,06,07,06,47,10.30
2017,06,07,06,48,10.30
2017,06,07,06,49,10.30
2017,06,07,06,50,10.40
2017,06,07,06,51,10.40
2017,06,07,06,52,10.40
2017,06,07,06,53,10.40
2017,06,07,06,54,10.50
2017,06,07,06,55,10.50
2017,06,07,06,56,10.60
2017,06,07,06,57,10.60
2017,06,07,06,58,10.60
2017,06,07,06,59,10.70
2017,06,07,07,00,10.70
2017,06,07,07,01,10.70
2017,06,07,07,02,10.70
2017,06,07,07,03,10.80
2017,06,07,07,04,10.80
2017,06,07,07,05,10.80
2017,06,07,07,06,10.80
2017,06,07,07,07,10.90
2017,06,07,07,08,10.90
2017,06,07,07,09,11.00
2017,06,07,07,10,11.10
2017,06,07,07,11,11.10
2017,06,07,07,12,11.20
2017,06,07,07,13,11.30
2017,06,07,07,14,11.30
2017,06,07,07,15,11.40
2017,06,07,07,16,11.40
2017,06,07,07,17,11.40
2017,06,07,07,18,11.50
2017,06,07,07,19,11.50
2017,06,07,07,20,11.60
2017,06,07,07,21,11.60
2017,06,07,07,22,11.60
2017,06,07,07,23,11.70
2017,06,07,07,24,11.70
2017,06,07,07,25,11.80
2017,06,07,07,26,11.80
2017,06,07,07,27,11.90
2017,06,07,07,28,11.90
2017,06,07,07,29,12.00
2017,06,07,07,30,12.00
2017,06,07,07,31,12.00
2017,06,07,07,32,12.10
2017,06,07,07,33,12.10
2017,06,07,07,34,12.10
2017,06,07,07,35,12.20
2017,06,07,07,36,12.20
2017,06,07,07,37,12.20
2017,06,07,07,38,12.30
2017,06,07,07,39,12.30
2017,06,07,07,40,12.30
2017,06,07,07,41,12.30
2017,06,07,07,42,12.40
2017,06,07,07,43,12.40
2017,06,07,07,44,12.40
2017,06,07,07,45,12.50
2017,06,07,07,46,12.50
2017,06,07,07,47,12.60
2017,06,07,07,48,12.60
2017,06,07,07,49,12.60
2017,06,07,07,50,12.70
2017,06,07,07,51,12.70
2017,06,07,07,52,12.70
2017,06,07,07,53,12.80
2017,06,07,07,54,12.80
2017,06,07,07,55,12.80
2017,06,07,07,56,12.80
2017,06,07,07,57,12.80
2017,06,07,07,58,12.80
2017,06,07,07,59,12.80
2017,06,07,08,00,12.90
2017,06,07,08,01,12.90
2017,06,07,08,02,12.90
2017,06,07,08,03,12.90
2017,06,07,08,04,12.90
2017,06,07,08,05,12.90
2017,06,07,08,06,13.00
2017,06,07,08,07,13.00
2017,06,07,08,08,13.00
2017,06,07,08,09,13.00
2017,06,07,08,10,13.00
2017,06,07,08,11,13.00
2017,06,07,08,12,13.10
2017,06,07,08,13,13.00
2017,06,07,08,14,13.00
2017,06,07,08,15,13.00
2017,06,07,08,16,13.00
2017,06,07,08,17,13.00
2017,06,07,08,18,13.00
2017,06,07,08,19,13.00
2017,06,07,08,20,13.00
2017,06,07,08,21,13.00
2017,06,07,08,22,13.00
2017,06,07,08,23,13.00
2017,06,07,08,24,12.90
2017,06,07,08,25,13.00
2017,06,07,08,26,13.00
2017,06,07,08,27,13.00
2017,06,07,08,28,13.00
2017,06,07,08,29,13.00
2017,06,07,08,30,13.00
2017,06,07,08,31,13.10
2017,06,07,08,32,13.10
2017,06,07,08,33,13.10
2017,06,07,08,34,13.20
2017,06,07,08,35,13.30
2017,06,07,08,36,13.30
2017,06,07,08,37,13.40
2017,06,07,08,38,13.40
2017,06,07,08,39,13.50
2017,06,07,08,40,13.60
2017,06,07,08,41,13.70
2017,06,07,08,42,13.70
2017,06,07,08,43,13.80
2017,06,07,08,44,13.90
2017,06,07,08,45,14.00
2017,06,07,08,46,14.10
2017,06,07,08,47,14.20
2017,06,07,08,48,14.30
2017,06,07,08,49,14.40
2017,06,07,08,50,14.50
2017,06,07,08,51,14.60
2017,06,07,08,52,14.80
2017,06,07,08,53,14.90
2017,06,07,08,54,15.00
2017,06,07,08,55,15.00
2017,06,07,08,56,15.10
2017,06,07,08,57,15.10
2017,06,07,08,58,15.10
2017,06,07,08,59,15.10
2017,06,07,09,00,15.10
2017,06,07,09,01,15.10
2017,06,07,09,02,15.00
2017,06,07,09,03,15.00
2017,06,07,09,04,15.00
2017,06,07,09,05,14.90
2017,06,07,09,06,14.90
2017,06,07,09,07,14.90
2017,06,07,09,08,14.90
2017,06,07,09,09,14.90
2017,06,07,09,10,14.90
2017,06,07,09,11,15.00
2017,06,07,09,12,15.10
2017,06,07,09,13,15.10
2017,06,07,09,14,15.20
2017,06,07,09,15,15.20
2017,06,07,09,16,15.30
2017,06,07,09,17,15.40
2017,06,07,09,18,15.40
2017,06,07,09,19,15.50
2017,06,07,09,20,15.60
2017,06,07,09,21,15.60
2017,06,07,09,22,15.70
2017,06,07,09,23,15.70
2017,06,07,09,24,15.70
2017,06,07,09,25,15.70
2017,06,07,09,26,15.80
2017,06,07,09,27,15.80
2017,06,07,09,28,15.70
2017,06,07,09,29,15.70
2017,06,07,09,30,15.70
2017,06,07,09,31,15.70
2017,06,07,09,32,15.70
2017,06,07,09,33,15.70
2017,06,07,09,34,15.80
2017,06,07,09,35,15.80
2017,06,07,09,36,15.80
2017,06,07,09,37,15.80
2017,06,07,09,38,15.90
2017,06,07,09,39,16.00
2017,06,07,09,40,16.10
2017,06,07,09,41,16.20
2017,06,07,09,42,16.40
2017,06,07,09,43,16.50
2017,06,07,09,44,16.70
2017,06,07,09,45,16.80
2017,06,07,09,46,16.90
2017,06,07,09,47,17.00
2017,06,07,09,48,17.10
2017,06,07,09,49,17.20
2017,06,07,09,50,17.30
2017,06,07,09,51,17.50
2017,06,07,09,52,17.60
2017,06,07,09,53,17.60
2017,06,07,09,54,17.70
2017,06,07,09,55,17.80
2017,06,07,09,56,17.80
2017,06,07,09,57,17.80
2017,06,07,09,58,17.80
2017,06,07,09,59,17.80
2017,06,07,10,00,17.80
2017,06,07,10,01,17.90
2017,06,07,10,02,17.90
2017,06,07,10,03,17.90
2017,06,07,10,04,17.80
2017,06,07,10,05,17.90
2017,06,07,10,06,17.90
2017,06,07,10,07,17.90
2017,06,07,10,08,18.00
2017,06,07,10,09,18.10
2017,06,07,10,10,18.10
2017,06,07,10,11,18.20
2017,06,07,10,12,18.20
2017,06,07,10,13,18.30
2017,06,07,10,14,18.30
2017,06,07,10,15,18.40
2017,06,07,10,16,18.40
2017,06,07,10,17,18.40
2017,06,07,10,18,18.30
2017,06,07,10,19,18.30
2017,06,07,10,20,18.40
2017,06,07,10,21,18.40
2017,06,07,10,22,18.50
2017,06,07,10,23,18.50
2017,06,07,10,24,18.60
2017,06,07,10,25,18.60
2017,06,07,10,26,18.60
2017,06,07,10,27,18.60
2017,06,07,10,28,18.50
2017,06,07,10,29,18.40
2017,06,07,10,30,18.40
2017,06,07,10,31,18.30
2017,06,07,10,32,18.20
2017,06,07,10,33,18.10
2017,06,07,10,34,18.10
2017,06,07,10,35,18.00
2017,06,07,10,36,18.00
2017,06,07,10,37,18.00
2017,06,07,10,38,18.00
2017,06,07,10,39,17.90
2017,06,07,10,40,17.90
2017,06,07,10,41,17.80
2017,06,07,10,42,17.70
2017,06,07,10,43,17.60
2017,06,07,10,44,17.60
2017,06,07,10,45,17.50
2017,06,07,10,46,17.40
2017,06,07,10,47,17.40
2017,06,07,10,48,17.40
2017,06,07,10,49,17.40
2017,06,07,10,50,17.40
2017,06,07,10,51,17.40
2017,06,07,10,52,17.40
2017,06,07,10,53,17.50
2017,06,07,10,54,17.50
2017,06,07,10,55,17.60
2017,06,07,10,56,17.70
2017,06,07,10,57,17.80
2017,06,07,10,58,17.90
2017,06,07,10,59,18.00
2017,06,07,11,00,18.10
2017,06,07,11,01,18.30
2017,06,07,11,02,18.40
2017,06,07,11,03,18.50
2017,06,07,11,04,18.70
2017,06,07,11,05,18.80
2017,06,07,11,06,18.80
2017,06,07,11,07,18.90
2017,06,07,11,08,19.00
2017,06,07,11,09,19.00
2017,06,07,11,10,19.10
2017,06,07,11,11,19.20
2017,06,07,11,12,19.30
2017,06,07,11,13,19.40
2017,06,07,11,14,19.40
2017,06,07,11,15,19.50
2017,06,07,11,16,19.70
2017,06,07,11,17,19.80
2017,06,07,11,18,19.90
2017,06,07,11,19,19.90
2017,06,07,11,20,19.90
2017,06,07,11,21,19.90
2017,06,07,11,22,19.90
2017,06,07,11,23,19.90
2017,06,07,11,24,19.90
2017,06,07,11,25,19.90
2017,06,07,11,26,20.00
2017,06,07,11,27,20.00
2017,06,07,11,28,20.10
2017,06,07,11,29,20.30
2017,06,07,11,30,20.50
2017,06,07,11,31,20.60
2017,06,07,11,32,20.70
2017,06,07,11,33,20.90
2017,06,07,11,34,21.00
2017,06,07,11,35,21.20
2017,06,07,11,36,21.30
2017,06,07,11,37,21.40
2017,06,07,11,38,21.50
2017,06,07,11,39,21.60
2017,06,07,11,40,21.70
2017,06,07,11,41,21.70
2017,06,07,11,42,21.70
2017,06,07,11,43,21.80
2017,06,07,11,44,21.80
2017,06,07,11,45,21.80
2017,06,07,11,46,21.80
2017,06,07,11,47,21.90
2017,06,07,11,48,22.00
2017,06,07,11,49,22.10
2017,06,07,11,50,22.20
2017,06,07,11,51,22.20
2017,06,07,11,52,22.30
2017,06,07,11,53,22.40
2017,06,07,11,54,22.40
2017,06,07,11,55,22.40
2017,06,07,11,56,22.30
2017,06,07,11,57,22.30
2017,06,07,11,58,22.20
2017,06,07,11,59,22.20
2017,06,07,12,00,22.30
2017,06,07,12,01,22.30
2017,06,07,12,02,22.40
2017,06,07,12,03,22.50
2017,06,07,12,04,22.50
2017,06,07,12,05,22.60
2017,06,07,12,06,22.60
2017,06,07,12,07,22.50
2017,06,07,12,08,22.40
2017,06,07,12,09,22.40
2017,06,07,12,10,22.30
2017,06,07,12,11,22.20
2017,06,07,12,12,22.10
2017,06,07,12,13,22.10
2017,06,07,12,14,22.10
2017,06,07,12,15,22.10
2017,06,07,12,16,22.10
2017,06,07,12,17,22.00
2017,06,07,12,18,22.00
2017,06,07,12,19,22.00
2017,06,07,12,20,22.00
2017,06,07,12,21,22.10
2017,06,07,12,22,22.10
2017,06,07,12,23,22.20
2017,06,07,12,24,22.20
2017,06,07,12,25,22.30
2017,06,07,12,26,22.30
2017,06,07,12,27,22.30
2017,06,07,12,28,22.30
2017,06,07,12,29,22.40
2017,06,07,12,30,22.40
2017,06,07,12,31,22.40
2017,06,07,12,32,22.40
2017,06,07,12,33,22.40
2017,06,07,12,34,22.40
2017,06,07,12,35,22.50
2017,06,07,12,36,22.40
2017,06,07,12,37,22.40
2017,06,07,12,38,22.40
2017,06,07,12,39,22.40
2017,06,07,12,40,22.40
2017,06,07,12,41,22.40
2017,06,07,12,42,22.40
2017,06,07,12,43,22.20
2017,06,07,12,44,22.20
2017,06,07,12,45,22.10
2017,06,07,12,46,22.10
2017,06,07,12,47,22.00
2017,06,07,12,48,22.00
2017,06,07,12,49,21.90
2017,06,07,12,50,21.90
2017,06,07,12,51,21.90
2017,06,07,12,52,21.90
2017,06,07,12,53,22.00
2017,06,07,12,54,22.00
2017,06,07,12,55,22.10
2017,06,07,12,56,22.20
2017,06,07,12,57,22.20
2017,06,07,12,58,22.30
2017,06,07,12,59,22.30
2017,06,07,13,00,22.30
2017,06,07,13,01,22.40
2017,06,07,13,02,22.40
2017,06,07,13,03,22.40
2017,06,07,13,04,22.30
2017,06,07,13,05,22.30
2017,06,07,13,06,22.30
2017,06,07,13,07,22.30
2017,06,07,13,08,22.40
2017,06,07,13,09,22.40
2017,06,07,13,10,22.50
2017,06,07,13,11,22.50
2017,06,07,13,12,22.60
2017,06,07,13,13,22.60
2017,06,07,13,14,22.60
2017,06,07,13,15,22.70
2017,06,07,13,16,22.70
2017,06,07,13,17,22.70
2017,06,07,13,18,22.80
2017,06,07,13,19,22.80
2017,06,07,13,20,22.80
2017,06,07,13,21,22.80
2017,06,07,13,22,22.80
2017,06,07,13,23,22.80
2017,06,07,13,24,22.80
2017,06,07,13,25,22.80
2017,06,07,13,26,22.70
2017,06,07,13,27,22.60
2017,06,07,13,28,22.50
2017,06,07,13,29,22.40
2017,06,07,13,30,22.30
2017,06,07,13,31,22.20
2017,06,07,13,32,22.20
2017,06,07,13,33,22.10
2017,06,07,13,34,22.00
2017,06,07,13,35,21.90
2017,06,07,13,36,21.90
2017,06,07,13,37,21.90
2017,06,07,13,38,21.90
2017,06,07,13,39,21.80
2017,06,07,13,40,21.80
2017,06,07,13,41,21.80
2017,06,07,13,42,21.80
2017,06,07,13,43,21.80
2017,06,07,13,44,21.80
2017,06,07,13,45,21.80
2017,06,07,13,46,21.80
2017,06,07,13,47,21.80
2017,06,07,13,48,21.80
2017,06,07,13,49,21.80
2017,06,07,13,50,21.80
2017,06,07,13,51,21.80
2017,06,07,13,52,21.80
2017,06,07,13,53,21.80
2017,06,07,13,54,21.90
2017,06,07,13,55,21.90
2017,06,07,13,56,22.00
2017,06,07,13,57,22.00
2017,06,07,13,58,22.00
2017,06,07,13,59,22.00
2017,06,07,14,00,21.90
2017,06,07,14,01,21.90
2017,06,07,14,02,21.90
2017,06,07,14,03,21.90
2017,06,07,14,04,21.90
2017,06,07,14,05,21.90
2017,06,07,14,06,21.90
2017,06,07,14,07,21.90
2017,06,07,14,08,21.90
2017,06,07,14,09,21.90
2017,06,07,14,10,21.90
2017,06,07,14,11,21.90
2017,06,07,14,12,21.90
2017,06,07,14,13,21.90
2017,06,07,14,14,21.80
2017,06,07,14,15,21.70
2017,06,07,14,16,21.60
2017,06,07,14,17,21.50
2017,06,07,14,18,21.40
2017,06,07,14,19,21.40
2017,06,07,14,20,21.40
2017,06,07,14,21,21.40
2017,06,07,14,22,21.50
2017,06,07,14,23,21.50
2017,06,07,14,24,21.60
2017,06,07,14,25,21.70
2017,06,07,14,26,21.80
2017,06,07,14,27,21.80
2017,06,07,14,28,21.90
2017,06,07,14,29,22.00
2017,06,07,14,30,22.10
2017,06,07,14,31,22.20
2017,06,07,14,32,22.30
2017,06,07,14,33,22.30
2017,06,07,14,34,22.30
2017,06,07,14,35,22.30
2017,06,07,14,36,22.30
2017,06,07,14,37,22.30
2017,06,07,14,38,22.40
2017,06,07,14,39,22.40
2017,06,07,14,40,22.50
2017,06,07,14,41,22.60
2017,06,07,14,42,22.70
2017,06,07,14,43,22.70
2017,06,07,14,44,22.70
2017,06,07,14,45,22.80
2017,06,07,14,46,22.80
2017,06,07,14,47,22.70
2017,06,07,14,48,22.80
2017,06,07,14,49,22.80
2017,06,07,14,50,22.80
2017,06,07,14,51,22.90
2017,06,07,14,52,23.00
2017,06,07,14,53,23.10
2017,06,07,14,54,23.20
2017,06,07,14,55,23.30
2017,06,07,14,56,23.40
2017,06,07,14,57,23.50
2017,06,07,14,58,23.50
2017,06,07,14,59,23.60
2017,06,07,15,00,23.60
2017,06,07,15,01,23.70
2017,06,07,15,02,23.70
2017,06,07,15,03,23.70
2017,06,07,15,04,23.70
2017,06,07,15,05,23.70
2017,06,07,15,06,23.70
2017,06,07,15,07,23.70
2017,06,07,15,08,23.80
2017,06,07,15,09,23.80
2017,06,07,15,10,23.90
2017,06,07,15,11,24.00
2017,06,07,15,12,24.10
2017,06,07,15,13,24.20
2017,06,07,15,14,24.30
2017,06,07,15,15,24.40
2017,06,07,15,16,24.50
2017,06,07,15,17,24.50
2017,06,07,15,18,24.40
2017,06,07,15,19,24.20
2017,06,07,15,20,24.10
2017,06,07,15,21,23.90
2017,06,07,15,22,23.80
2017,06,07,15,23,23.70
2017,06,07,15,24,23.70
2017,06,07,15,25,23.70
2017,06,07,15,26,23.70
2017,06,07,15,27,23.80
2017,06,07,15,28,23.90
2017,06,07,15,29,24.00
2017,06,07,15,30,24.10
2017,06,07,15,31,24.20
2017,06,07,15,32,24.30
2017,06,07,15,33,24.30
2017,06,07,15,34,24.40
2017,06,07,15,35,24.50
2017,06,07,15,36,24.60
2017,06,07,15,37,24.60
2017,06,07,15,38,24.60
2017,06,07,15,39,24.60
2017,06,07,15,40,24.60
2017,06,07,15,41,24.70
2017,06,07,15,42,24.70
2017,06,07,15,43,24.80
2017,06,07,15,44,24.80
2017,06,07,15,45,24.80
2017,06,07,15,46,24.80
2017,06,07,15,47,24.90
2017,06,07,15,48,24.80
2017,06,07,15,49,24.80
2017,06,07,15,50,24.80
2017,06,07,15,51,24.80
2017,06,07,15,52,24.80
2017,06,07,15,53,24.70
2017,06,07,15,54,24.60
2017,06,07,15,55,24.60
2017,06,07,15,56,24.40
2017,06,07,15,57,24.30
2017,06,07,15,58,24.20
2017,06,07,15,59,24.10
2017,06,07,16,00,24.00
2017,06,07,16,01,23.90
2017,06,07,16,02,23.80
2017,06,07,16,03,23.80
2017,06,07,16,04,23.80
2017,06,07,16,05,23.70
2017,06,07,16,06,23.70
2017,06,07,16,07,23.70
2017,06,07,16,08,23.80
2017,06,07,16,09,23.80
2017,06,07,16,10,23.90
2017,06,07,16,11,24.00
2017,06,07,16,12,24.10
2017,06,07,16,13,24.10
2017,06,07,16,14,24.30
2017,06,07,16,15,24.30
2017,06,07,16,16,24.40
2017,06,07,16,17,24.50
2017,06,07,16,18,24.50
2017,06,07,16,19,24.50
2017,06,07,16,20,24.40
2017,06,07,16,21,24.30
2017,06,07,16,22,24.30
2017,06,07,16,23,24.30
2017,06,07,16,24,24.30
2017,06,07,16,25,24.20
2017,06,07,16,26,24.20
2017,06,07,16,27,24.10
2017,06,07,16,28,24.10
2017,06,07,16,29,24.10
2017,06,07,16,30,24.10
2017,06,07,16,31,24.10
2017,06,07,16,32,24.20
2017,06,07,16,33,24.20
2017,06,07,16,34,24.20
2017,06,07,16,35,24.10
2017,06,07,16,36,24.10
2017,06,07,16,37,24.10
2017,06,07,16,38,24.00
2017,06,07,16,39,24.00
2017,06,07,16,40,24.10
2017,06,07,16,41,24.10
2017,06,07,16,42,24.10
2017,06,07,16,43,24.20
2017,06,07,16,44,24.20
2017,06,07,16,45,24.20
2017,06,07,16,46,24.30
2017,06,07,16,47,24.30
2017,06,07,16,48,24.30
2017,06,07,16,49,24.40
2017,06,07,16,50,24.40
2017,06,07,16,51,24.40
2017,06,07,16,52,24.50
2017,06,07,16,53,24.50
2017,06,07,16,54,24.60
2017,06,07,16,55,24.60
2017,06,07,16,56,24.50
2017,06,07,16,57,24.50
2017,06,07,16,58,24.40
2017,06,07,16,59,24.40
2017,06,07,17,00,24.30
2017,06,07,17,01,24.30
2017,06,07,17,02,24.20
2017,06,07,17,03,24.20
2017,06,07,17,04,24.10
2017,06,07,17,05,24.00
2017,06,07,17,06,24.00
2017,06,07,17,07,23.90
2017,06,07,17,08,23.80
2017,06,07,17,09,23.70
2017,06,07,17,10,23.70
2017,06,07,17,11,23.60
2017,06,07,17,12,23.60
2017,06,07,17,13,23.60
2017,06,07,17,14,23.60
2017,06,07,17,15,23.60
2017,06,07,17,16,23.50
2017,06,07,17,17,23.50
2017,06,07,17,18,23.50
2017,06,07,17,19,23.50